Location: Newark
(43.6583°N, 1.6617°E)
Time: 08:36:25
(UTC+00:00)

Courier 1B - Pass Details

Date: 28 August 2019
Orbit: 962 x 1209 km, 28.3° (Epoch: 15 September)

Event Time Altitude Azimuth Distance (km) Brightness Sun altitude
Rises 15:41:10 0° 231° (SW) 3,950 11.6 30.5°
Reaches altitude 10° 15:44:48 10° 215° (SW) 2,945 10.9 29.9°
Maximum altitude 15:49:46 20° 171° (S) 2,227 9.6 29.0°
Drops below altitude 10° 15:54:32 10° 127° (SE) 2,819 9.7 28.2°
Sets 15:57:55 0° 111° (ESE) 3,731 10.1 27.6°
